Home > Weather > Liberec > Past weeks

Flag for Czech Republic Weather for the Past 2 Weeks in Liberec, Czech Republic

Now
71 °F

Partly sunny.


Feels Like: 76 °F
Forecast: 46 / 67 °F
Wind: 2 mph from South

Location: Liberec

Current Time: May 6, 2016 at 5:23:09 PM

Latest Report: May 6, 2016 at 4:00 PM


Visibility: 25 mi

Pressure: 30.04 "Hg

Humidity: 26%

Dew Point: 34 °F

Location of LiberecLocation

Historic Weather in Liberec — Graph

°F

Liberec Temperature Yesterday

Maximum temperature yesterday: 64 °F (at 6:00 PM)
Minimum temperature yesterday: 42 °F (at 4:00 AM)
Average temperature yesterday: 51 °F

High & Low Weather Summary for the Past Weeks

 TemperatureHumidityPressure
High71 °F (May 6, 4:00 PM)97% (Apr 22, 6:00 AM)30.37 "Hg (Apr 22, 6:00 AM)
Low26 °F (Apr 25, 1:00 AM)26% (May 6, 3:00 PM)29.50 "Hg (Apr 26, 1:00 PM)
Average45 °F67%30.03 "Hg
* Reported Apr 21 4:00 PM — May 6 4:00 PM, Liberec, Weather by CustomWeather, © 2016

Note: Actual official high and low records may vary slightly from our data, if they occured in-between our weather recording intervals... More about our weather records

Advertising

Liberec Weather History for the Previous 24 Hours

Scroll right to see more
 ConditionsComfort  
Time TempWeatherWind HumidityBarometerVisibility
4:00 PM
Fri, May 6
71 °FPartly sunny.2 mph26%30.04 "Hg25 mi
3:00 PM68 °FPartly sunny.1 mph26%30.07 "Hg25 mi
2:00 PM69 °FScattered clouds.1 mph32%30.09 "Hg25 mi
1:00 PM67 °FPartly sunny.2 mph34%30.11 "Hg25 mi
12:00 PM66 °FPartly sunny.2 mph33%30.13 "Hg25 mi
11:00 AM64 °FPassing clouds.3 mph35%30.14 "Hg22 mi
10:00 AM62 °FPassing clouds.3 mph39%30.16 "Hg22 mi
9:00 AM61 °FSunny.1 mph44%30.17 "Hg19 mi
8:00 AM53 °FSunny.1 mph58%30.20 "Hg16 mi
7:00 AM45 °FCool.1 mph75%30.22 "Hg12 mi
6:00 AM40 °FQuite cool.1 mph95%30.24 "Hg12 mi
5:00 AM39 °FChilly.1 mph94%30.24 "Hg12 mi
4:00 AM41 °FQuite cool.1 mph94%30.25 "Hg12 mi
3:00 AM41 °FQuite cool.1 mph95%30.26 "Hg8 mi
2:00 AM42 °FQuite cool.1 mph95%30.27 "Hg10 mi
1:00 AM43 °FQuite cool.1 mph93%30.27 "Hg11 mi
12:00 AM44 °FQuite cool.2 mph89%30.27 "Hg12 mi
11:00 PM
Thu, May 5
46 °FCool.1 mph84%30.26 "Hg12 mi
10:00 PM50 °FPassing clouds.1 mph79%30.26 "Hg16 mi
9:00 PM51 °FPassing clouds.1 mph76%30.25 "Hg19 mi
8:00 PM55 °FPassing clouds.2 mph64%30.23 "Hg22 mi
7:00 PM62 °FRefreshingly cool.2 mph50%30.22 "Hg12 mi
6:00 PM64 °FMild.1 mph46%30.22 "Hg12 mi
5:00 PM63 °FScattered clouds.2 mph45%30.24 "Hg22 mi
Weather by CustomWeather, © 2016

See weather overviewHow to use our weather pages